Regional Weather Roundup
Issued by NWS Cleveland, OH

Home | Current Version | Previous Version | Graphics & Text | Print | Product List | Glossary On
Versions: 1 2 3 4 5 6 7 8 9 10 11 12 13 14 15 16 17 18 19 20 21 22 23 24 25 26 27 28 29 30 31 32 33 34 35 36 37 38 39 40 41 42 43 44 45 46 47 48 49 50
000
ASUS41 KCLE 031210
RWRCLE
OHIO REGIONAL WEATHER ROUNDUP
NATIONAL WEATHER SERVICE WILMINGTON, OH
800 AM EDT FRI JUL 03 2015

NOTE: "FAIR" INDICATES FEW OR NO CLOUDS BELOW 12,000 FEET WITH NO
SIGNIFICANT WEATHER AND/OR OBSTRUCTIONS TO VISIBILITY.

OHZ001>008-015>018-024>027-034-035-043-044-031300-
   NORTHWEST OHIO

CITY           SKY/WX    TMP DP  RH WIND       PRES   REMARKS
DEFIANCE       PTSUNNY   59  54  83 NE6       29.98R
FINDLAY        PTSUNNY   62  57  83 E9        29.96S
TOLEDO EXPRESS PTSUNNY   58  54  86 NE5       29.98S
TOLEDO EXEC    PTSUNNY   63  56  78 NE3       30.00R
LIMA           PTSUNNY   59  56  89 E7        29.96S
$$

OHZ009>014-019>023-028>033-038-089-031300-
   NORTHEAST OHIO

CITY           SKY/WX    TMP DP  RH WIND       PRES   REMARKS
CLE-HOPKINS    MOSUNNY   61  52  72 E7        30.01R
CLE-LAKEFRONT  SUNNY     63  52  67 E3        29.98S
CUY CO. ARPT   MOSUNNY   61  54  77 E5        30.00R
LORAIN-ELYRIA  MOSUNNY   58  56  93 E6        30.00R
ASHTABULA      SUNNY     56  52  86 E3        30.02R
AKRON-CANTON   PTSUNNY   59  53  80 E6        29.98F
WOOSTER        MOSUNNY   58  54  86 E6        29.99S
MANSFIELD      PTSUNNY   60  53  77 E6        29.98S
YOUNGSTOWN     PTSUNNY   57  52  83 E7        30.00R
$$

OHZ042-051>053-060>062-070>072-077>081-031300-
  SOUTHWEST OHIO

CITY           SKY/WX    TMP DP  RH WIND       PRES   REMARKS
CINC-COVINGTON CLOUDY    67  64  90 E9        29.90S FOG
CINC-LUNKEN    CLOUDY    67  63  87 NE6       29.90S
HAMILTON       CLOUDY    67  60  78 NE6       29.92S
DAYTON         CLOUDY    64  57  78 E5        29.95R
WRIGHT-PAT AFB PTSUNNY   64  56  75 E7        29.93S
DAYTON GENERAL CLOUDY    64  58  80 E7        29.92S
WILMINGTON     CLOUDY    63  58  83 NE7       29.92S
$$

OHZ036-037-039>041-045>050-054>059-063>069-073>076-082>088-031300-
  CENTRAL AND SOUTHEAST OHIO

CITY           SKY/WX    TMP DP  RH WIND       PRES   REMARKS
COLUMBUS       PTSUNNY   63  56  78 E3        29.94S
OSU AIRPORT    PTSUNNY   63  55  75 E7        29.94F
BOLTON FIELD   SUNNY     63  57  82 CALM      29.95R
RICKENBACK AFB MOSUNNY   60  56  86 E10       29.93S
NEWARK         PTSUNNY   62  55  77 E5        29.95S
MARION         PTSUNNY   60  54  80 NE6       29.97S
LANCASTER      PTSUNNY   63  57  81 E5        29.95R
ZANESVILLE     MOSUNNY   61  55  81 NE5       29.95S
NEW PHILLY     MOSUNNY   59  55  87 CALM      29.98F
$$



USA.gov is the U.S. government's official web portal to all federal, state and local government web resources and services.